[[{"header":{"parameterUnit":"m.s-1","parameterCategory":1,"la1":30.2991,"la2":30.254,"lo1":-89.0895,"lo2":-89.0444,"dy":0.0017,"dx":0.0017,"nx":28,"ny":28,"refTime":"2026-02-03T09:00:00:Z","depth":0,"parameterNumber":2,"parameterNumberName":"U-component_of_WINDS"},"data":[0,0,0,0,0,0,0,0,0,0,0,0,0,0,0,0,0,0,0,0,0,0,0,0,0,0,0,0,0,0,0,0,0,0,0,0,0,0,0,0,0,0,0,0,0,0,0,0,0,0,0,0,0,0,0,0,0,0,1.8666,1.8666,0,1.8695,1.8696,1.8696,1.8686,1.8686,1.8685,1.8684,1.8715,1.8717,1.8718,0,0,0,0,0,0,0,0,0,0,0,0,0,1.8601,1.8602,1.8666,1.8666,1.8666,1.8695,1.8696,1.8696,1.8686,1.8686,1.8685,1.8684,1.8715,1.8716,1.8718,0,0,0,0,0,0,0,0,0,0,0,0,0,1.863,1.8603,1.8666,1.8665,1.8665,1.8695,1.8696,1.8696,1.8687,1.8686,1.8685,1.8684,1.8714,1.8716,1.8718,1.8751,0,0,1.8725,1.8726,0,0,0,0,0,0,0,0,1.8628,1.8632,1.8665,1.8665,1.8665,1.8686,1.8684,1.8715,1.8687,1.8678,1.8684,1.8683,1.8706,1.8709,1.8717,1.8752,1.8754,1.8725,1.8726,1.8727,1.8728,0,0,0,0,0,0,0,1.8626,1.8631,1.8677,1.8665,1.8666,1.8664,1.8667,1.869,1.8697,1.8679,1.8678,1.8682,1.8706,1.8715,1.8717,1.8754,1.8725,1.8727,1.8728,1.8729,1.8818,1.8819,0,0,0,0,0,0,1.8624,1.8629,1.8676,1.8678,1.8644,1.8665,1.8669,1.868,1.8697,1.8699,1.8683,1.8682,1.8712,1.8715,1.8718,1.8758,1.8727,1.8729,1.873,1.8817,1.8819,1.882,0,0,0,0,0,0,1.8623,1.8628,1.8675,1.8654,1.866,1.8668,1.8681,1.8682,1.869,1.87,1.8701,1.869,1.8711,1.8715,1.8743,1.8759,1.873,1.8732,1.8816,1.8818,1.8819,1.8837,0,0,0,0,0,0,1.8621,1.8628,1.864,1.8654,1.8661,1.8699,1.8682,1.8683,1.8694,1.8692,1.8707,1.8709,1.871,1.874,1.8745,1.8761,1.8734,1.8815,1.8817,1.8819,1.8835,1.8839,1.8842,0,0,0,0,0,1.8619,1.8644,1.8641,1.8646,1.8676,1.87,1.8704,1.8705,1.8695,1.8707,1.8714,1.8708,1.8756,1.8743,1.8749,1.8765,1.8814,1.8816,1.8819,1.8833,1.8838,1.8842,0,0,0,0,0,0,1.8631,1.8645,1.8642,1.8673,1.8685,1.8698,1.8714,1.871,1.8726,1.8724,1.8725,1.8729,1.8757,1.8764,1.8749,1.8798,1.8783,1.8787,1.8792,1.8797,1.8801,1.8798,1.8736,0,0,0,0,0,1.8637,1.8655,1.8667,1.8693,1.8699,1.8706,1.8716,1.8716,1.8729,1.8735,1.8743,1.8756,1.8774,1.8786,1.8803,1.8836,1.8839,1.8851,1.8854,1.8857,1.886,1.8878,1.8883,1.8828,1.8828,1.8828,0,0,1.8651,1.8661,1.8672,1.8696,1.8705,1.8724,1.871,1.873,1.8745,1.8738,1.8764,1.8771,1.8786,1.8816,1.883,1.8823,1.8876,1.886,1.8863,1.8864,1.8881,1.8887,1.8891,1.883,1.8829,1.8829,0,0,1.8684,1.8693,1.8716,1.8726,1.8741,1.8745,1.8751,1.8765,1.8769,1.8796,1.8791,1.8808,1.8839,1.885,1.886,1.8899,1.8894,1.8904,1.8923,1.8941,1.8945,1.8949,1.8963,1.8968,1.8908,1.8908,1.8908,0,1.8698,1.8726,1.8728,1.8749,1.876,1.8755,1.8778,1.8788,1.8808,1.8815,1.8807,1.8846,1.8856,1.8889,1.8899,1.8907,1.8913,1.8902,1.8945,1.8948,1.8952,1.8965,1.897,1.8909,1.8909,1.8908,1.8908,0,1.8743,1.8763,1.8779,1.8799,1.8811,1.8833,1.8839,1.8851,1.8851,1.8856,1.8884,1.8895,1.8915,1.8923,1.8923,1.8956,1.8951,1.8944,1.8929,1.8958,1.8971,1.8976,1.891,1.891,1.891,1.8909,0,0,1.8784,1.8805,1.8811,1.882,1.8837,1.8852,1.8874,1.8893,1.8904,1.8919,1.8937,1.8964,1.8958,1.8969,1.897,1.8986,1.9016,1.8976,1.8977,1.8983,1.9054,1.9058,1.9064,1.9013,1.9014,1.9015,1.9052,0,1.8819,1.8857,1.886,1.8895,1.8913,1.8909,1.8928,1.8941,1.8947,1.8964,1.897,1.8989,1.8979,1.8986,1.9001,1.9009,1.903,1.9006,1.9031,1.9031,1.9026,1.9071,1.9076,1.911,1.9057,1.9058,1.9059,0,1.8864,1.888,1.8916,1.8931,1.8939,1.8956,1.8974,1.899,1.9005,1.9008,1.9021,1.902,1.9043,1.9028,1.9061,1.9044,1.9055,1.906,1.9062,1.9063,1.9046,1.9073,1.9121,1.9126,1.9066,1.9066,1.9065,0,1.889,1.892,1.8946,1.8954,1.8972,1.8984,1.8992,1.9006,1.9018,1.9034,1.9042,1.906,1.9071,1.9085,1.909,1.9079,1.9122,1.9107,1.9125,1.9125,1.9134,1.9133,1.9184,1.9142,1.9142,1.9142,1.9141,0,1.8928,1.895,1.8958,1.8974,1.8999,1.9003,1.9028,1.9035,1.9048,1.9065,1.9064,1.908,1.9085,1.9103,1.9107,1.9133,1.9138,1.9141,1.9142,1.9141,1.9141,1.9147,1.9145,1.9143,1.9143,1.9142,1.9142,0,1.896,1.8967,1.8995,1.901,1.9014,1.9032,1.9045,1.906,1.9067,1.9089,1.9094,1.9104,1.9125,1.9131,1.9156,1.9159,1.9189,1.9188,1.9184,1.9184,1.9202,1.92,1.9258,1.9266,1.9219,1.9219,1.922,0,1.8984,1.9001,1.9018,1.903,1.9038,1.9057,1.9069,1.9073,1.9086,1.9104,1.9118,1.9139,1.9155,1.9189,1.9198,1.9218,1.9217,1.9236,1.9219,1.9218,1.9217,1.9215,1.9217,1.9239,1.9239,1.9239,1.924,0,1.9025,1.9027,1.9044,1.9063,1.9077,1.9092,1.9106,1.9116,1.9123,1.9137,1.9158,1.9172,1.9198,1.9218,1.9238,1.9247,1.9245,1.9245,1.925,1.9249,1.9246,1.9248,1.9192,1.9243,1.9243,1.9243,1.9243,1.9242,1.9053,1.9068,1.9083,1.9102,1.9113,1.9127,1.9143,1.9151,1.9169,1.919,1.9192,1.9215,1.923,1.9257,1.9267,1.9285,1.9279,1.9287,1.9289,1.929,1.9292,1.9244,1.9289,1.9289,1.9289,1.9289,1.9288,0,1.9093,1.9103,1.9121,1.9141,1.9156,1.9153,1.9169,1.9182,1.9203,1.9217,1.9233,1.9258,1.9279,1.929,1.9311,1.9323,1.9323,1.9328,1.9327,1.9329,1.9296,1.9289,1.9329,1.9329,1.9329,1.9329,1.9328,1.9328,1.9116,1.9142,1.9146,1.9178,1.9187,1.9209,1.9219,1.9232,1.9243,1.9271,1.9288,1.9295,1.9309,1.933,1.9349,1.9352,1.9359,1.9365,1.9368,1.9336,1.9332,1.9328,1.9321,1.9367,1.9367,1.94,1.94,1.94]},{"header":{"parameterUnit":"m.s-1","parameterCategory":1,"la1":30.2991,"la2":30.254,"lo1":-89.0895,"lo2":-89.0444,"dy":0.0017,"dx":0.0017,"nx":28,"ny":28,"refTime":"2026-02-03T09:00:00:Z","depth":0,"parameterNumber":3,"parameterNumberName":"V-component_of_WINDS"},"data":[0,0,0,0,0,0,0,0,0,0,0,0,0,0,0,0,0,0,0,0,0,0,0,0,0,0,0,0,0,0,0,0,0,0,0,0,0,0,0,0,0,0,0,0,0,0,0,0,0,0,0,0,0,0,0,0,0,0,-7.248,-7.2482,0,-7.2701,-7.2703,-7.2706,-7.2734,-7.2732,-7.273,-7.2728,-7.2945,-7.2952,-7.296,0,0,0,0,0,0,0,0,0,0,0,0,0,-7.2075,-7.2083,-7.2479,-7.2482,-7.2485,-7.27,-7.2703,-7.2706,-7.2735,-7.2732,-7.273,-7.2727,-7.2942,-7.2952,-7.2961,0,0,0,0,0,0,0,0,0,0,0,0,0,-7.2269,-7.2085,-7.2479,-7.2525,-7.2532,-7.27,-7.2703,-7.2707,-7.2735,-7.2732,-7.2729,-7.2726,-7.2939,-7.2951,-7.2962,-7.3096,0,0,-7.2997,-7.3002,0,0,0,0,0,0,0,0,-7.2258,-7.2284,-7.2516,-7.2522,-7.253,-7.2687,-7.2641,-7.2837,-7.2736,-7.2658,-7.2728,-7.2724,-7.2861,-7.2879,-7.2927,-7.3106,-7.3116,-7.2998,-7.3005,-7.301,-7.3014,0,0,0,0,0,0,0,-7.2244,-7.2274,-7.2567,-7.2519,-7.2528,-7.2533,-7.2557,-7.2678,-7.2774,-7.2664,-7.2667,-7.2693,-7.2864,-7.2916,-7.2932,-7.3119,-7.2998,-7.3008,-7.3016,-7.302,-7.3424,-7.3427,0,0,0,0,0,0,-7.2224,-7.2263,-7.256,-7.2573,-7.2384,-7.2543,-7.257,-7.2639,-7.2773,-7.279,-7.2696,-7.2694,-7.2897,-7.2919,-7.294,-7.3109,-7.301,-7.3021,-7.3028,-7.342,-7.3425,-7.3429,0,0,0,0,0,0,-7.2215,-7.225,-7.2551,-7.2419,-7.2458,-7.2553,-7.2631,-7.2645,-7.2697,-7.2797,-7.2813,-7.2731,-7.2896,-7.2924,-7.3059,-7.3117,-7.3026,-7.3037,-7.3416,-7.3421,-7.3427,-7.3446,0,0,0,0,0,0,-7.2203,-7.2246,-7.23,-7.242,-7.2465,-7.2668,-7.2635,-7.2652,-7.2718,-7.2718,-7.2834,-7.285,-7.2895,-7.3041,-7.307,-7.3131,-7.3046,-7.3411,-7.3418,-7.3425,-7.344,-7.3451,-7.3461,0,0,0,0,0,-7.2189,-7.2293,-7.2302,-7.2338,-7.2534,-7.2671,-7.2696,-7.2749,-7.2723,-7.2777,-7.2841,-7.2847,-7.3106,-7.3055,-7.3088,-7.3153,-7.3407,-7.3416,-7.3424,-7.3436,-7.3449,-7.3461,0,0,0,0,0,0,-7.2172,-7.2309,-7.2321,-7.2468,-7.2558,-7.2676,-7.2745,-7.2761,-7.2857,-7.2853,-7.2911,-7.2937,-7.307,-7.3125,-7.3066,-7.3292,-7.3254,-7.3269,-7.3251,-7.3265,-7.3275,-7.3259,-7.3056,0,0,0,0,0,-7.2186,-7.2289,-7.2402,-7.2521,-7.2566,-7.2648,-7.2709,-7.2743,-7.2837,-7.2874,-7.2949,-7.3038,-7.314,-7.3205,-7.3304,-7.3449,-7.3475,-7.351,-7.352,-7.3528,-7.354,-7.3624,-7.3641,-7.3457,-7.3456,-7.3456,0,0,-7.2215,-7.2303,-7.2363,-7.252,-7.2594,-7.2698,-7.2679,-7.2789,-7.2866,-7.289,-7.3024,-7.3082,-7.3185,-7.3327,-7.3393,-7.3376,-7.3598,-7.3538,-7.3544,-7.3553,-7.3634,-7.3652,-7.3667,-7.3462,-7.3461,-7.346,0,0,-7.2321,-7.2398,-7.2507,-7.2583,-7.2697,-7.2752,-7.2778,-7.2895,-7.2935,-7.3072,-7.3093,-7.3184,-7.3358,-7.3432,-7.3492,-7.3632,-7.3642,-7.3662,-7.3715,-7.3796,-7.3811,-7.3824,-7.3876,-7.3894,-7.3674,-7.3675,-7.3675,0,-7.2342,-7.2502,-7.256,-7.2672,-7.2741,-7.2772,-7.2883,-7.2952,-7.3091,-7.3137,-7.3118,-7.334,-7.3411,-7.3572,-7.3607,-7.3654,-7.3686,-7.3649,-7.3805,-7.3819,-7.3832,-7.3882,-7.3901,-7.3676,-7.3676,-7.3676,-7.3676,0,-7.2523,-7.2634,-7.2708,-7.2847,-7.2924,-7.3034,-7.3108,-7.3179,-7.3207,-7.3263,-7.3403,-7.349,-7.3609,-7.365,-7.3675,-7.3816,-7.3803,-7.3793,-7.3756,-7.385,-7.3899,-7.3918,-7.3679,-7.3679,-7.3678,-7.3677,0,0,-7.2622,-7.2797,-7.2823,-7.2888,-7.3018,-7.3104,-7.3216,-7.3337,-7.3397,-7.3492,-7.3588,-7.3737,-7.3731,-7.3799,-7.3834,-7.3905,-7.4014,-7.3887,-7.3891,-7.3909,-7.4176,-7.4183,-7.4205,-7.4021,-7.4025,-7.4028,-7.4168,0,-7.2745,-7.295,-7.3008,-7.318,-7.3284,-7.3317,-7.3415,-7.3505,-7.3561,-7.3656,-7.3716,-7.3822,-7.3805,-7.3847,-7.3919,-7.3985,-7.4068,-7.3975,-7.411,-7.4114,-7.4084,-7.423,-7.4237,-7.4365,-7.4187,-7.419,-7.4193,0,-7.2915,-7.302,-7.3204,-7.3325,-7.3371,-7.3458,-7.3576,-7.3666,-7.3769,-7.3805,-7.3885,-7.3914,-7.4032,-7.3989,-7.4152,-7.4088,-7.4146,-7.4187,-7.4194,-7.4208,-7.4159,-7.4249,-7.4407,-7.4426,-7.4222,-7.422,-7.4218,0,-7.2972,-7.3158,-7.3294,-7.3348,-7.3492,-7.3553,-7.3615,-7.3716,-7.3786,-7.3888,-7.3934,-7.4046,-7.4108,-7.4193,-7.4252,-7.4216,-7.4411,-7.4373,-7.4444,-7.4443,-7.4484,-7.448,-7.4654,-7.4519,-7.4519,-7.4519,-7.4518,0,-7.3104,-7.3215,-7.3322,-7.3405,-7.3532,-7.3597,-7.372,-7.3783,-7.3872,-7.3968,-7.4001,-7.4089,-7.4162,-7.4259,-7.4306,-7.4435,-7.4461,-7.4494,-7.4505,-7.4492,-7.4488,-7.4531,-7.4524,-7.4524,-7.4523,-7.4522,-7.4521,0,-7.3189,-7.3265,-7.3415,-7.3541,-7.3575,-7.3663,-7.377,-7.3852,-7.3911,-7.4031,-7.4063,-7.4155,-7.4272,-7.434,-7.4485,-7.4517,-7.4661,-7.4667,-7.4628,-7.4633,-7.4702,-7.4695,-7.4909,-7.4942,-7.4784,-7.4786,-7.4787,0,-7.3268,-7.3356,-7.3494,-7.3562,-7.3627,-7.3735,-7.3809,-7.3877,-7.3952,-7.4079,-7.4145,-7.4266,-7.4366,-7.4551,-7.4629,-7.4742,-7.4752,-7.4819,-7.4768,-7.4754,-7.4755,-7.475,-7.476,-7.4828,-7.4829,-7.483,-7.4831,0,-7.3402,-7.3437,-7.3544,-7.3666,-7.3754,-7.3851,-7.3948,-7.4001,-7.4085,-7.4168,-7.4291,-7.4369,-7.4522,-7.4641,-7.4761,-7.4822,-7.4841,-7.4847,-7.487,-7.4857,-7.4832,-7.4849,-7.4653,-7.4841,-7.484,-7.484,-7.4839,-7.4839,-7.3488,-7.3569,-7.3681,-7.3799,-7.3881,-7.3972,-7.4056,-7.4129,-7.4233,-7.4366,-7.4399,-7.4528,-7.4631,-7.4796,-7.4861,-7.4962,-7.495,-7.4982,-7.4991,-7.4998,-7.5002,-7.4816,-7.4984,-7.4984,-7.4983,-7.4983,-7.4983,0,-7.3626,-7.3701,-7.381,-7.3947,-7.4041,-7.4055,-7.4164,-7.4241,-7.4356,-7.4452,-7.4552,-7.4694,-7.4811,-7.4901,-7.502,-7.5084,-7.5096,-7.5113,-7.5109,-7.5124,-7.5004,-7.4974,-7.5102,-7.5102,-7.5102,-7.5102,-7.5102,-7.5102,-7.3709,-7.3848,-7.3897,-7.4077,-7.415,-7.4281,-7.4342,-7.4426,-7.4504,-7.4663,-7.4763,-7.4822,-7.4916,-7.5043,-7.5151,-7.5174,-7.5217,-7.5234,-7.5258,-7.5145,-7.5132,-7.512,-7.5091,-7.5242,-7.5242,-7.537,-7.5371,-7.5372]}]]